Location: Monrovia
(34.7865°N, 86.7139°W)
Time: 00:04:28
(UTC+00:00)

Cosmos 1833 Rocket - Pass Details

Date: 14 July 2020
Orbit: 832 x 840 km, 71.0° (Epoch: 12 August)

Event Time Altitude Azimuth Distance (km) Brightness Sun altitude
Exits shadow 07:31:39 79° 15° (NNE) 852 2.7 -28.9°
Drops below altitude 10° 07:36:54 10° 21° (NNE) 2,446 6.0 -28.4°
Sets 07:39:20 0° 21° (NNE) 3,385 7.1 -28.2°
